Torna al catalogo

STARLINK-3504

AttivoComunicazioniVLEO
NORAD 51881·PAYLOAD·🇺🇸 United States

Lanciato Mar 3, 2022 da Cape Canaveral Space Force Station

Loading…

Prossimi Passaggi (prossime 24 ore)

TLE

AggiornatoSource: CelesTrak SupGP

Epoca: Sep 14, 2026, 14:43 UTC

1 51881C 22022AF  26257.61368056 -.00014289  00000+0 -42226-3 0  2579
2 51881  53.1578 216.8727 0001452  88.8825 308.6469 15.34390599    13

Traccia STARLINK-3504 in tempo reale con AllMySat

Download on the App Store